Location: Wayah Bald
(35.1806°N, 83.5603°W)
Time: 08:36:06
(UTC-04:00)

Meteor 1-27 Rocket - Visible Passes

Search period start: 29 August 2015 00:00
Search period end: 08 September 2015 00:00
Orbit: 830 x 910 km, 81.3° (Epoch: 29 August)

Date Brightness Start Highest point End Pass type
(mag) Time Alt. Az. Time Alt. Az. Time Alt. Az.
29 Aug 6.4 05:10:10 10° ESE 05:13:11 16° E 05:16:30 10° NE visible
30 Aug 6.4 05:03:51 10° ESE 05:07:01 16° E 05:10:28 10° NE visible
31 Aug 6.3 04:57:33 10° SE 05:00:50 17° E 05:04:25 10° NE visible
01 Sep 6.2 04:51:16 10° SE 04:54:40 18° E 04:58:21 10° NE visible
01 Sep 4.0 06:32:22 10° SSW 06:37:39 47° WNW 06:43:00 10° N visible
02 Sep 6.2 04:44:58 10° SE 04:48:30 18° E 04:52:17 10° NE visible
02 Sep 4.0 06:26:15 10° SSW 06:31:30 45° WNW 06:36:50 10° N visible
03 Sep 6.1 04:38:41 10° SE 04:42:20 19° E 04:46:14 10° NE visible
03 Sep 4.0 06:20:07 10° SSW 06:25:21 44° WNW 06:30:39 10° N visible
04 Sep 6.0 04:32:25 10° SE 04:36:10 20° E 04:40:10 10° NE visible
04 Sep 4.1 06:14:00 10° SSW 06:19:13 42° WNW 06:24:29 10° N visible
05 Sep 5.9 04:26:09 10° SE 04:30:00 20° E 04:34:05 10° NE visible
05 Sep 4.1 06:07:55 10° SSW 06:13:04 41° WNW 06:18:18 10° N visible
06 Sep 5.8 04:20:19 12° SE 04:23:50 21° E 04:28:01 10° NE visible
06 Sep 4.2 06:02:48 15° SW 06:06:55 39° WNW 06:12:08 10° N visible
07 Sep 5.8 04:15:06 16° SE 04:17:40 22° E 04:21:56 10° NE visible
07 Sep 4.2 05:57:35 21° SW 06:00:46 38° WNW 06:05:57 10° N visible
